GALAXY 36 (G-36)

Last updated on Sun Jun 21 2026 00:03:09 GMT+0000 (Coordinated Universal Time)

1 54742U 22170B 26171.37439038 -.00000190 00000+0 00000+0 0 9997 2 54742 0.0027 66.1363 0002602 18.0076 230.2209 1.00272198 12809
UTC large
Height (km)
Speed (km/s)
/
Latitude / Longitude
Inclination (degrees)
Orbital Period (minutes)
Azimuth
Elevation
Range (km)
Doppler Factor

Next 0 passes for location: London (51.5072 / 0.1276)

No passes found over London.
GALAXY 36 (G-36)